Torna al catalogo

SCOUT A DEB

AttivoPO
NORAD 2889·DEBRIS·🇺🇸 United States

Lanciato Jan 28, 1966 da Vandenberg Space Force Base

Loading…

Prossimi Passaggi (prossime 24 ore)

TLE

AggiornatoSource: Space-Track

Epoca: Sep 14, 2026, 04:08 UTC

1 02889U 66005E   26257.17266638  .00000043  00000-0  83431-4 0  9995
2 02889  89.5390 154.1033 0164822 275.1397 240.3462 13.18020047848116

Traccia SCOUT A DEB in tempo reale con AllMySat

Download on the App Store